Monticello, KY

8:47 AM EST on February 26, 2017 (GMT -0500)
Wayne County

Weather History for KEKQ - December, 2012

Change the Weather History Date:

Saturday, December 29, 2012

  Actual Average Record
Temperature  
Mean Temperature 32 °F -  
Max Temperature 37 °F 45 °F 68 °F (1964)
Min Temperature 26 °F 28 °F 3 °F (1961)
Degree Days  
Heating Degree Days 34    
Moisture  
Dew Point 31 °F    
Average Humidity 92    
Maximum Humidity 100    
Minimum Humidity 75    
Precipitation  
Precipitation 0.11 in - - ()
Sea Level Pressure  
Sea Level Pressure 29.97 in    
Wind  
Wind Speed 9 mph (WNW)    
Max Wind Speed 18 mph    
Max Gust Speed -    
Visibility 6 miles    
Events Rain , Snow    
Averages and records for this station are not official NWS values.
T = Trace of Precipitation, MM = Missing Value Source: NWS Daily Summary

Daily Weather History Graph

Daily Weather History Graph

Search for Another Location

Airport or City:

Trip Planner

Search our weather history database for the weather conditions in past years. The results will help you decide how hot, cold, wet, or windy it might be!

Date:

Astronomy

Dec. 29, 2012 Rise Set
Actual Time 6:51 AM CST 4:31 PM CST
Civil Twilight 6:22 AM CST 5:00 PM CST
Nautical Twilight 5:50 AM CST 5:33 PM CST
Astronomical Twilight 5:18 AM CST 6:04 PM CST
Moon 6:01 PM CST (12/29) 7:26 AM CST (12/29)
Length of Visible Light 10h 37m
Length of Day
9h 40m
Full, 98% of the Moon is Illuminated
Dec 29
Full
Jan 4
Last Quarter
Jan 11
New
Jan 18
First Quarter
Jan 26
Full

Hourly Weather History & Observations

Time (CST) Temp. Windchill Dew Point Humidity Pressure Visibility Wind Dir Wind Speed Gust Speed Precip Events Conditions
12:10 AM 37.4 °F 34.9 °F 37.4 °F 100% 29.78 in 3.0 mi North 3.5 mph - 0.00 in Rain Light Rain
12:13 AM 37.4 °F 34.9 °F 37.4 °F 100% 29.78 in 2.5 mi North 3.5 mph - 0.01 in Rain Light Rain
12:17 AM 37.4 °F 33.8 °F 37.4 °F 100% 29.77 in 1.8 mi NE 4.6 mph - 0.01 in Rain Rain
12:27 AM 37.4 °F 34.9 °F 37.4 °F 100% 29.77 in 1.8 mi NE 3.5 mph - 0.02 in Rain Rain
12:47 AM 35.6 °F - 35.6 °F 100% 29.76 in 2.5 mi Calm Calm - 0.05 in Rain Light Rain
12:56 AM 36.0 °F - 36.0 °F 100% 29.76 in 1.8 mi Calm Calm - 0.05 in Rain Light Rain
1:13 AM 35.6 °F 30.7 °F 35.6 °F 100% 29.76 in 1.2 mi SSE 5.8 mph - 0.01 in Rain Light Rain
1:22 AM 35.6 °F 30.7 °F 35.6 °F 100% 29.76 in 1.5 mi South 5.8 mph - 0.02 in Rain Light Rain
1:35 AM 35.6 °F 30.7 °F 35.6 °F 100% 29.76 in 2.5 mi South 5.8 mph - 0.02 in Rain Light Rain
1:45 AM 37.4 °F 32.8 °F 37.4 °F 100% 29.75 in 2.5 mi South 5.8 mph - 0.02 in Rain Light Rain
1:56 AM 36.9 °F 34.3 °F 36.9 °F 100% 29.75 in 4.0 mi South 3.5 mph - 0.03 in Rain Light Rain
2:56 AM 37.9 °F 30.0 °F 37.9 °F 100% 29.75 in 4.0 mi SW 12.7 mph - 0.01 in Rain Light Rain
3:19 AM 37.4 °F 29.3 °F 37.4 °F 100% 29.75 in 4.0 mi WSW 12.7 mph - 0.00 in Rain Light Rain
3:56 AM 37.9 °F 29.6 °F 37.9 °F 100% 29.76 in 4.0 mi WSW 13.8 mph - 0.00 in Rain Light Rain
4:05 AM 37.4 °F 29.8 °F 37.4 °F 100% 29.76 in 5.0 mi WSW 11.5 mph - 0.01 in Rain Light Rain
4:19 AM 37.4 °F 28.2 °F 37.4 °F 100% 29.77 in 4.0 mi WSW 16.1 mph - 0.01 in Rain Light Rain
4:56 AM 37.9 °F 29.6 °F 36.0 °F 93% 29.78 in 5.0 mi West 13.8 mph - 0.02 in Rain Light Rain
5:56 AM 36.9 °F 27.8 °F 34.9 °F 93% 29.86 in 6.0 mi WNW 15.0 mph - 0.00 in Rain Light Rain
6:25 AM 35.6 °F 26.2 °F 33.8 °F 93% 29.85 in 10.0 mi NW 15.0 mph - 0.00 in   Overcast
6:34 AM 35.6 °F 26.2 °F 33.8 °F 93% 29.85 in 10.0 mi WNW 15.0 mph - 0.00 in   Overcast
6:56 AM 34.0 °F 23.0 °F 32.0 °F 92% 29.92 in 10.0 mi WNW 18.4 mph - 0.00 in   Overcast
7:15 AM 33.8 °F 23.9 °F 32.0 °F 93% 29.89 in 10.0 mi NW 15.0 mph - N/A   Overcast
7:56 AM 32.9 °F 22.0 °F 31.1 °F 93% 29.95 in 10.0 mi WNW 17.3 mph - 0.00 in Rain Light Rain
8:09 AM 33.8 °F 24.8 °F 30.2 °F 87% 29.92 in 8.0 mi WNW 12.7 mph - 0.00 in Rain Light Rain
8:56 AM 32.9 °F 25.3 °F 31.1 °F 93% 29.98 in 9.0 mi NW 9.2 mph - 0.00 in   Overcast
9:09 AM 33.8 °F 27.0 °F 32.0 °F 93% 29.95 in 7.0 mi WNW 8.1 mph - N/A   Overcast
9:46 AM 33.8 °F 24.8 °F 30.2 °F 87% 29.97 in 6.0 mi WNW 12.7 mph - 0.00 in   Overcast
9:56 AM 32.9 °F 23.7 °F 31.1 °F 93% 30.01 in 6.0 mi WNW 12.7 mph - 0.00 in Rain Light Rain
10:56 AM 32.0 °F 22.1 °F 30.0 °F 92% 30.02 in 5.0 mi WNW 13.8 mph - 0.00 in   Overcast
11:56 AM 32.0 °F 24.2 °F 30.0 °F 92% 30.02 in 5.0 mi NW 9.2 mph - 0.00 in   Overcast
12:56 PM 32.0 °F 21.6 °F 30.0 °F 92% 30.03 in 5.0 mi NW 15.0 mph - 0.00 in   Overcast
1:08 PM 32.0 °F 22.5 °F 28.4 °F 87% 29.99 in 7.0 mi NW 12.7 mph - 0.00 in   Overcast
1:56 PM 32.0 °F 21.6 °F 29.1 °F 89% 30.05 in 4.0 mi NW 15.0 mph - 0.00 in   Overcast
2:07 PM 32.0 °F 23.6 °F 30.2 °F 93% 30.02 in 2.0 mi NW 10.4 mph - 0.00 in   Overcast
2:18 PM 32.0 °F 21.6 °F 28.4 °F 87% 30.02 in 4.0 mi NW 15.0 mph - 0.00 in   Overcast
2:26 PM 32.0 °F 22.5 °F 28.4 °F 87% 30.03 in 6.0 mi NW 12.7 mph - 0.00 in   Overcast
2:42 PM 32.0 °F 23.6 °F 28.4 °F 87% 30.04 in 2.5 mi NW 10.4 mph - 0.00 in Snow Light Snow
2:56 PM 32.0 °F 23.6 °F 30.0 °F 92% 30.09 in 2.5 mi NW 10.4 mph - 0.00 in   Overcast
3:14 PM 32.0 °F 23.0 °F 30.2 °F 93% 30.06 in 3.0 mi NW 11.5 mph - 0.00 in Snow Light Snow
3:56 PM 32.0 °F 23.6 °F 30.0 °F 92% 30.13 in 2.0 mi WNW 10.4 mph - 0.00 in Snow Light Snow
4:20 PM 32.0 °F 24.8 °F 28.4 °F 87% 30.09 in 3.0 mi WNW 8.1 mph - 0.00 in Snow Light Snow
4:56 PM 32.0 °F 23.6 °F 28.0 °F 85% 30.15 in 8.0 mi NW 10.4 mph - 0.00 in   Overcast
5:47 PM 30.2 °F 20.2 °F 26.6 °F 86% 30.14 in 8.0 mi NW 12.7 mph - 0.00 in   Overcast
5:56 PM 31.1 °F 21.4 °F 26.1 °F 82% 30.19 in 8.0 mi NW 12.7 mph - 0.00 in Snow Light Snow
6:26 PM 30.2 °F 21.3 °F 26.6 °F 86% 30.16 in 10.0 mi WNW 10.4 mph - 0.00 in   Overcast
6:56 PM 30.0 °F 18.7 °F 25.2 °F 82% 30.22 in 10.0 mi NW 16.1 mph - 0.00 in   Overcast
7:08 PM 30.2 °F 19.8 °F 24.8 °F 80% 30.19 in 10.0 mi NW 13.8 mph - N/A   Overcast
7:56 PM 30.0 °F 19.1 °F 23.0 °F 75% 30.25 in 10.0 mi NW 15.0 mph - 0.00 in   Overcast
8:56 PM 29.1 °F 20.0 °F 25.2 °F 85% 30.28 in 6.0 mi NW 10.4 mph - 0.00 in Snow Light Snow
9:42 PM 28.4 °F - 24.8 °F 86% - - North - - N/A   Unknown
9:56 PM 28.0 °F - 23.0 °F 81% - - North - - N/A   Unknown
10:56 PM 27.1 °F 14.5 °F 22.1 °F 81% 30.35 in 10.0 mi NW 17.3 mph - N/A   Unknown
11:24 PM 26.6 °F 15.2 °F 21.2 °F 80% 30.31 in 10.0 mi NW 13.8 mph - N/A   Overcast
11:56 PM 26.1 °F 15.0 °F 21.0 °F 81% 30.37 in 10.0 mi NW 12.7 mph - 0.00 in   Overcast